Overview Statistics Trail Chart Weather Telemetry Raw packets
 

This is the latest recevied weather packets stored in our database for station/object G4WLC-1. If no packets are shown the sender has not sent any weather packets the latest 10 day(s).

<< 58 59 60 61 62 63 64 >>
Time Temp. Humidity Pressure Rain* Wind** Luminosity Snow
1788265930 20° C 70% 1020.6 hPa 0 mm - - -
1788265630 20° C 71% 1020.6 hPa 0 mm - - -
1788265330 20° C 71% 1020.6 hPa 0 mm - - -
1788265030 20° C 70% 1020.6 hPa 0 mm - - -
1788264730 20° C 71% 1020.7 hPa 0 mm - - -
1788264431 19.44° C 73% 1020.8 hPa 0 mm - - -
1788264130 18.89° C 75% 1020.9 hPa 0 mm - - -
1788263830 19.44° C 74% 1021 hPa 0 mm - - -
1788263530 19.44° C 74% 1020.9 hPa 0 mm - - -
1788263230 19.44° C 74% 1021 hPa 0 mm - - -
1788262930 19.44° C 74% 1020.8 hPa 0 mm - - -
1788262630 19.44° C 75% 1020.8 hPa 0 mm - - -
1788262330 18.89° C 78% 1020.7 hPa 0 mm - - -
1788262030 18.89° C 78% 1020.8 hPa 0 mm - - -
1788261730 18.33° C 80% 1020.8 hPa 0 mm - - -
1788261430 17.78° C 81% 1020.7 hPa 0 mm - - -
1788261130 17.78° C 80% 1020.8 hPa 0 mm - - -
1788260830 17.78° C 80% 1020.8 hPa 0 mm - - -
1788260530 17.78° C 80% 1021 hPa 0 mm - - -
1788260230 17.78° C 78% 1021 hPa 0 mm - - -
1788259930 18.33° C 71% 1020.9 hPa 0 mm - - -
1788259630 18.89° C 68% 1021 hPa 0 mm - - -
1788259330 18.89° C 70% 1020.9 hPa 0 mm - - -
1788259030 18.89° C 70% 1020.7 hPa 0 mm - - -
1788258730 18.33° C 73% 1020.9 hPa 0 mm - - -

* Rain latest hour (hover to see other rain measurements)
** Current wind speed in m/s (hover to see current wind gust speed)